Wheeling, WV

5:51 PM EST on December 17, 2017 (GMT -0500)
Wheeling-Ohio County

Weather History for KHLG - December, 2012

Change the Weather History Date:

Tuesday, December 4, 2012

  Actual Average Record
Temperature  
Mean Temperature 55 °F 36 °F  
Max Temperature 65 °F 43 °F 70 °F (1941)
Min Temperature 44 °F 30 °F 9 °F (1919)
Degree Days  
Heating Degree Days 10 29  
Month to date heating degree days 44 112  
Since 1 July heating degree days 1269 1240  
Cooling Degree Days 0    
Month to date cooling degree days 0  
Year to date cooling degree days 996  
Growing Degree Days 4 (Base 50)    
Moisture  
Dew Point 50 °F    
Average Humidity 78    
Maximum Humidity 93    
Minimum Humidity 63    
Precipitation  
Precipitation 0.47 in 0.08 in 1.00 in (1914)
Month to date precipitation 0.66 0.33  
Year to date precipitation 35.88  
Sea Level Pressure  
Sea Level Pressure 30.09 in    
Wind  
Wind Speed 13 mph (SW)    
Max Wind Speed 24 mph    
Max Gust Speed 35 mph    
Visibility 9 miles    
Events Rain    
T = Trace of Precipitation, MM = Missing Value Source: NWS Daily Summary

Daily Weather History Graph

Daily Weather History Graph

Search for Another Location

Airport or City:

Trip Planner

Search our weather history database for the weather conditions in past years. The results will help you decide how hot, cold, wet, or windy it might be!

Date:

Astronomy

Dec. 04, 2012 Rise Set
Actual Time 7:29 AM EST 4:56 PM EST
Civil Twilight 6:58 AM EST 5:27 PM EST
Nautical Twilight 6:25 AM EST 6:00 PM EST
Astronomical Twilight 5:52 AM EST 6:33 PM EST
Moon 10:43 PM EST (12/4) 11:22 AM EST (12/4)
Length of Visible Light 10h 28m
Length of Day
9h 27m
Waning Gibbous, 69% of the Moon is Illuminated
Dec 4
Waning Gibbous
Dec 6
Last Quarter
Dec 13
New
Dec 20
First Quarter
Dec 28
Full

Hourly Weather History & Observations

Time (EST) Temp. Windchill Dew Point Humidity Pressure Visibility Wind Dir Wind Speed Gust Speed Precip Events Conditions
1:53 AM 57.9 °F - 52.0 °F 81% 30.14 in 10.0 mi SSW 11.5 mph - N/A   Clear
2:53 AM 57.9 °F - 51.1 °F 78% 30.15 in 10.0 mi SSW 12.7 mph - N/A   Clear
3:53 AM 57.0 °F - 51.1 °F 81% 30.15 in 10.0 mi South 10.4 mph - N/A   Partly Cloudy
4:53 AM 57.0 °F - 50.0 °F 77% 30.15 in 10.0 mi SSW 12.7 mph - N/A   Clear
5:53 AM 57.0 °F - 48.9 °F 74% 30.14 in 10.0 mi South 12.7 mph - N/A   Partly Cloudy
6:53 AM 55.9 °F - 48.0 °F 75% 30.14 in 10.0 mi South 11.5 mph - N/A   Partly Cloudy
7:53 AM 55.9 °F - 48.0 °F 75% 30.14 in 10.0 mi South 9.2 mph - N/A   Clear
8:53 AM 59.0 °F - 48.0 °F 67% 30.14 in 10.0 mi South 12.7 mph 21.9 mph N/A   Mostly Cloudy
9:53 AM 61.0 °F - 48.9 °F 64% 30.14 in 10.0 mi South 17.3 mph 24.2 mph N/A   Overcast
10:53 AM 63.0 °F - 50.0 °F 63% 30.11 in 10.0 mi SSW 18.4 mph 27.6 mph N/A   Mostly Cloudy
11:53 AM 64.0 °F - 51.1 °F 63% 30.08 in 10.0 mi SSW 12.7 mph 19.6 mph N/A   Mostly Cloudy
12:44 PM 62.6 °F - 51.8 °F 68% 30.07 in 10.0 mi SW 15.0 mph 27.6 mph 0.00 in Rain Light Rain
12:53 PM 61.0 °F - 52.0 °F 72% 30.06 in 10.0 mi SW 13.8 mph 24.2 mph 0.00 in Rain Light Rain
1:11 PM 62.6 °F - 53.6 °F 72% 30.05 in 10.0 mi SSW 12.7 mph 18.4 mph 0.00 in Rain Light Rain
1:30 PM 62.6 °F - 53.6 °F 72% 30.04 in 10.0 mi SW 17.3 mph 27.6 mph 0.00 in Rain Light Rain
1:53 PM 61.0 °F - 53.1 °F 75% 30.05 in 10.0 mi SSW 18.4 mph 26.5 mph 0.00 in   Overcast
2:53 PM 61.0 °F - 54.0 °F 78% 30.03 in 10.0 mi SW 16.1 mph 23.0 mph 0.01 in   Overcast
3:53 PM 57.9 °F - 55.0 °F 90% 30.03 in 8.0 mi SSW 13.8 mph 20.7 mph 0.03 in Rain Light Rain
4:53 PM 59.0 °F - 55.0 °F 87% 30.02 in 10.0 mi SSW 15.0 mph 23.0 mph 0.00 in   Overcast
5:53 PM 59.0 °F - 55.0 °F 87% 30.01 in 10.0 mi SSW 16.1 mph - 0.00 in   Overcast
6:53 PM 60.1 °F - 55.0 °F 83% 30.00 in 10.0 mi SSW 13.8 mph 20.7 mph N/A   Overcast
7:53 PM 59.0 °F - 55.0 °F 87% 30.04 in 7.0 mi West 9.2 mph - 0.02 in Rain Light Rain
8:01 PM 55.4 °F - 53.6 °F 94% 30.03 in 3.0 mi NW 12.7 mph 25.3 mph 0.08 in Rain Heavy Rain
8:05 PM 53.6 °F - 51.8 °F 94% 30.04 in 2.5 mi NW 13.8 mph 20.7 mph 0.09 in Rain Rain
8:09 PM 53.6 °F - 51.8 °F 94% 30.04 in 4.0 mi WNW 11.5 mph 20.7 mph 0.10 in Rain Rain
8:53 PM 50.0 °F - 48.0 °F 93% 30.09 in 8.0 mi NW 13.8 mph 23.0 mph 0.18 in Rain Light Rain
9:18 PM 48.2 °F - 44.6 °F 87% 30.10 in 5.0 mi NW 16.1 mph 21.9 mph 0.07 in Rain Rain
9:36 PM 46.4 °F 41.1 °F 41.0 °F 81% 30.12 in 4.0 mi NW 11.5 mph 21.9 mph 0.13 in Rain Rain
9:53 PM 45.0 °F 41.2 °F 41.0 °F 86% 30.12 in 9.0 mi NW 6.9 mph - 0.16 in Rain Light Rain
10:53 PM 44.1 °F 40.8 °F 42.1 °F 93% 30.12 in 10.0 mi West 5.8 mph - 0.06 in Rain Light Rain
11:38 PM 44.6 °F 40.7 °F 42.8 °F 93% 30.13 in 10.0 mi WNW 6.9 mph - 0.01 in   Overcast
11:53 PM 44.1 °F 40.1 °F 42.1 °F 93% 30.15 in 10.0 mi West 6.9 mph - 0.01 in   Overcast